{"data":{"norad_id":48392,"epoch":"2026-09-19T05:02:54.623616Z","epoch_age_seconds":145071,"freshness":"FRESH","line1":"1 48392U 21038AR  26262.21035444 -.00000501  00000+0 -43621-5 0  9999","line2":"2 48392  53.1606 151.9415 0001393  77.2585 282.8572 15.31699872298313","mean_motion":15.31699872,"eccentricity":0.0001393,"inclination_deg":53.1606,"raan_deg":151.9415,"arg_perigee_deg":77.2585,"mean_anomaly_deg":282.8572,"bstar":-4.3621e-6,"rev_number":29831,"period_min":94.013195817516,"perigee_km":469.78632816843,"apogee_km":471.6944254056,"semimajor_km":6848.877376787,"source":"CELESTRAK","updated_at":"2026-09-20T09:00:38.945890Z"}}